OBJECT A, 55009

Orbit data source: Space-Track

You're viewing an Uncataloged Satellite

Recently launched and/or uncataloged satellites may have evolving metadata. Metadata may include but not limited to: Owner, Maufacturer, Bus, Motor, and Mission.

OBJECT A, 55009 is a satellite in SSO that was launched on Tue, 03 Jan 2023 UTC via an FALCON 9 launch vehicle from the Air Force Eastern Test Range (AFETR). Unknown objects in Earth's orbit typically refer to objects detected orbiting the Earth but have not yet been identified or cataloged. These objects could be anything from previously untracked satellites, spent rocket stages, debris from satellite collisions, or even natural meteoroids temporarily captured by Earth's gravity.

Loading next visibility...
OBJECT A details
Identifier
55009, 2023-001A
Orbit
SSO
Last TLE update4 hours ago
Origin
Flag of TBDScanway (TBD)
ManufacturerGerman Orb Sys
MissionOperational Commercial Imaging
Bus & MotorCUBESAT 6U, Unknown motor
Mass10 kg wet, ~10 kg dry
Launch date (UTC)
2023-01-03 (2 years ago)
Launch vehicle
FALCON 9
Launch site
Air Force Eastern Test Range (AFETR)
Object typeUnknown
Shape & HBRBox + 2 Pan, 0.3 m
Radar Cross Section0.080 m², Small (<0.1 m²)

Expand to show TLE details & history

TLE from 4 hours ago
0 OBJECT A
1 55009U 23001A   25036.18501074  .00015011  00000-0  55723-3 0  9990
2 55009  97.3904  96.9783 0009095  94.3764 265.8514 15.27632522115981
Epoch: 2025-02-05T04:26Z
Definitive object data (Epoch: 2025-02-05T04:26:24.927Z)
Latitude-0.00012°
Longitude-105.20513°
Altitude486.45 km
Speed7.622 km/s
True Right ascension06h 27m 54s
True Declination0° 00' 00"
Sunlit
Object was in full shadow at TLE epoch
Visualization TLE readout
Latitude-72.40852°
Longitude50.96329°
Altitude515.484 km
Speed7.601 km/s
Apparent Right ascension21h 13m 00s
Apparent Declination-63° 03' 41"
Sunlit
Object is in daylight
Visualization observer readout
Local Sidereal Time10:44:02
Azimuth157.139° SSE
Elevation-63.183°
Doppler factor1
Orbital elements
Apogee altitude486.084 km
Perigee altitude473.609 km
Semi-major axis6,857.984 km
Eccentricity0.0009095
Inclination97.3904°
RAAN96.9783°
Arg. of periapsis94.3764°
True anomaly265.74746°
Mean anomaly265.8514°
Eccentric anomaly265.79943°
Mean motion3.82163 °/min
BSTAR0.00055723
Orbital period94.2 mins
Loading maneuver chart data...
Loading historical data...
Loading historical data...
Loading historical data...
Loading historical data...
Loading historical data...
Loading historical data...
Loading historical data...

OBJECT A Visibility forecast

Observer location: undefined°, undefined

Span
Click to sort rows by Start time (UTC) header in descending order
Start Az.
Max El. time (UTC)
Max El. Az.
Max El.
End time (UTC)
End Az.
4 mins2025-02-05 16:01:30.244Z53.251° ENE2025-02-05 16:03:30.244Z93.559° ESE18.965°2025-02-05 16:05:30.244Z135.044° SSE
4 mins2025-02-05 17:35:30.244Z321.813° NNW2025-02-05 17:36:30.244Z299.59° NW19.818°2025-02-05 17:39:30.244Z240.028° WSW
5 mins2025-02-06 04:09:30.244Z182.058° SSW2025-02-06 04:11:30.244Z239.91° WSW41.477°2025-02-06 04:14:30.244Z339.458° N
|